Temp
26 26 25 25 25 24 24 24 24 24 24 24 24 24 24 23 23 22 22 22 22 22 22 21 22 21 21 21 21 21 21 21 21 21 21 21 21 21 21 21 21 21 21 21 22 22 22 21 20 20 20 20 19 19 19 19 19 19 19 19 18 18 18
26 26 26 25 25 25 25 25 25 24 24 24 25 24 24 24 23 23 23 22 22 22 22 22 22 22 22 22 21 21 21 21 21 21 21 21 21 21 21 21 21 21 21 21 22 22 22 21 21 20 20 20 19 20 19 19 19 19 19 19 18 18 18
27 26 26 26 25 25 25 25 25 25 25 25 25 24 24 24 24 24 23 23 22 22 22 22 22 22 22 22 22 21 21 21 21 21 21 21 21 21 21 21 21 21 21 21 21 21 21 21 21 20 20 20 20 20 20 19 19 19 19 19 18 18 18
27 27 27 26 26 26 25 25 25 25 25 25 25 25 25 25 24 24 24 24 23 23 23 22 22 22 22 22 22 21 21 21 21 21 21 21 21 21 21 21 21 21 21 21 21 21 21 21 21 20 20 20 20 20 20 20 19 19 19 19 19 18 18
27 27 27 27 26 26 26 26 25 25 25 25 25 25 25 25 24 24 24 24 24 24 24 23 23 23 23 22 22 22 22 22 22 21 21 21 21 21 21 21 21 21 21 21 21 21 21 21 21 20 20 20 20 20 20 20 20 19 19 19 19 19 19
27 27 27 27 27 26 26 26 26 26 26 26 26 25 25 25 24 24 24 23 23 24 24 23 23 23 23 23 22 22 22 22 22 22 21 21 21 21 21 22 22 21 21 21 21 21 21 21 21 21 21 20 20 20 20 20 20 20 20 19 19 19 19
28 28 28 27 27 27 27 27 27 27 26 26 26 26 25 24 24 24 23 23 23 23 23 23 23 23 23 23 23 22 22 22 22 22 22 21 21 21 22 22 22 22 21 21 21 21 21 21 21 21 21 20 20 20 20 20 20 20 20 20 19 19 19
29 28 28 28 28 28 27 27 27 27 27 26 25 25 25 24 24 24 23 23 23 23 23 24 24 24 23 23 23 23 22 22 22 22 22 21 21 22 22 22 23 23 22 21 21 21 21 21 21 21 21 20 20 20 20 20 20 20 20 20 20 20 19
30 29 29 29 28 28 28 28 28 27 27 26 25 25 25 24 24 24 24 24 23 23 24 24 25 24 24 23 23 23 23 22 22 22 22 22 21 22 23 23 23 23 22 22 21 21 21 21 21 21 21 20 20 20 20 20 20 20 20 20 20 20 20
29 29 29 29 29 29 29 28 28 27 26 26 26 26 25 25 25 24 24 24 23 24 24 25 25 24 23 23 23 23 23 23 23 22 22 22 22 22 23 23 23 23 23 22 22 21 21 21 21 21 21 20 20 20 20 20 20 20 20 20 20 20 20
29 29 29 29 29 29 29 28 28 27 27 26 26 26 25 25 25 24 24 24 24 24 24 24 24 23 23 23 23 22 23 23 23 22 22 22 22 22 23 23 23 23 23 22 22 21 21 21 21 21 21 20 20 20 20 20 20 20 20 20 20 20 20
30 29 29 29 29 29 29 29 28 27 27 27 26 26 26 25 25 25 25 24 25 25 24 24 24 23 23 23 23 23 23 23 23 23 23 22 22 22 22 23 23 23 23 23 22 21 21 21 21 21 21 21 21 20 20 20 20 20 20 20 20 20 20
30 30 30 29 29 29 29 29 28 28 28 27 27 27 26 26 25 25 25 25 25 25 24 24 24 23 23 23 23 23 23 24 24 23 23 23 23 22 22 22 23 23 23 23 22 22 21 21 21 21 21 21 21 21 20 20 20 20 20 20 20 20 20
30 30 30 29 29 29 29 29 28 28 28 28 27 27 26 26 25 25 25 25 25 25 24 24 24 23 23 23 23 23 24 24 24 24 23 23 23 22 22 22 22 23 23 23 22 22 21 21 21 21 21 21 21 20 20 20 20 20 20 19 19 19 19
30 30 30 30 29 29 29 29 29 29 28 28 27 27 27 26 26 25 25 25 25 25 25 25 24 24 23 23 23 23 24 24 24 24 23 23 23 23 22 22 22 22 22 23 23 22 22 22 21 21 21 21 21 20 20 20 20 20 20 19 19 19 19
31 31 31 30 29 29 30 29 29 29 29 28 27 27 27 26 26 26 25 25 25 25 25 24 23 24 24 24 24 24 23 23 23 23 23 23 23 23 22 22 21 21 22 22 23 23 23 22 21 21 21 21 21 20 20 20 20 20 20 19 19 19 19
31 32 31 30 29 29 30 30 29 29 29 28 28 28 27 27 27 26 26 26 26 26 25 24 24 24 24 25 25 24 23 23 23 23 23 23 23 22 22 22 21 21 21 22 23 23 23 23 22 21 21 21 21 20 20 20 20 20 20 19 19 19 19
31 32 32 31 30 29 30 30 29 29 29 29 29 28 28 28 27 27 26 26 26 26 25 24 24 24 25 25 25 23 23 23 22 23 23 23 23 22 22 21 21 21 21 21 22 23 23 23 23 22 22 21 21 20 20 21 21 20 20 20 19 19 19
29 30 31 31 31 30 30 30 30 30 30 30 29 29 28 28 28 28 27 27 27 26 25 24 24 25 25 25 24 24 23 23 22 23 23 23 23 22 21 21 21 21 21 21 22 22 23 23 23 23 22 21 21 21 21 21 21 21 20 20 19 19 18
28 29 30 31 31 30 30 30 30 30 30 30 30 29 29 28 28 29 29 28 27 26 25 25 25 25 25 25 24 24 23 22 22 23 23 23 22 22 22 22 22 22 21 21 21 21 22 23 23 23 23 22 21 21 21 21 21 21 20 20 19 18 17
28 29 29 31 31 30 30 31 31 30 30 30 30 29 28 28 28 29 28 27 26 26 27 27 26 26 26 25 24 24 23 23 23 23 23 22 22 22 22 22 22 22 21 21 21 21 23 23 23 23 23 23 22 22 21 22 22 21 21 20 19 18 17
28 28 29 30 31 31 30 30 30 31 30 30 30 29 28 28 28 28 28 27 27 27 27 27 26 26 26 25 24 24 24 23 23 23 23 22 22 22 22 22 22 22 22 21 21 21 22 22 23 23 23 23 23 22 22 22 22 21 21 20 19 18 17
27 28 29 29 30 31 30 30 30 30 29 29 29 29 29 29 29 29 28 28 27 27 27 26 26 26 26 25 25 25 24 24 23 23 23 22 22 22 22 22 22 22 22 21 21 21 21 22 22 22 23 23 23 23 22 22 22 21 21 20 18 18 17
27 28 28 29 30 30 29 30 30 29 28 28 28 29 30 29 29 29 28 28 27 27 26 26 26 26 26 26 26 26 25 24 24 24 24 23 23 23 22 22 22 22 22 21 21 21 22 22 22 22 23 24 23 23 23 22 22 22 21 20 19 18 17
27 28 28 29 29 29 29 29 29 29 29 28 28 29 29 29 29 29 28 28 28 27 27 27 27 27 27 27 27 27 26 25 24 24 24 24 24 23 23 23 23 22 22 21 21 22 21 21 21 22 23 23 23 23 23 22 22 21 20 20 19 18 17
27 28 28 29 29 29 29 29 29 29 28 28 29 28 28 28 29 29 29 29 28 27 27 28 28 28 28 28 28 27 26 25 25 25 25 25 25 24 24 23 23 22 21 21 21 21 21 21 21 21 21 22 22 22 22 21 21 21 20 20 19 18 17
27 27 28 29 29 29 29 30 30 29 29 29 29 28 28 27 27 27 28 28 28 28 29 30 30 29 29 29 28 27 26 26 25 25 25 26 25 24 24 23 23 22 22 22 22 21 21 20 20 20 20 20 21 21 21 21 21 21 20 20 19 19 17
26 27 27 28 28 29 29 29 30 30 30 29 28 28 28 27 26 26 26 26 28 29 30 30 30 29 29 28 27 26 26 25 25 25 24 24 24 24 23 23 22 22 22 22 22 21 20 19 19 19 19 20 20 21 21 20 20 20 20 20 19 19 17
27 27 27 27 27 28 28 29 29 29 29 29 28 27 27 27 27 27 26 26 27 28 28 27 27 28 27 27 26 26 25 25 25 24 23 23 23 23 23 22 21 21 21 21 21 21 20 19 19 19 19 20 20 20 20 20 19 19 19 19 19 18 18
26 26 26 27 26 27 27 28 28 28 29 29 28 27 27 27 27 27 27 27 27 27 26 26 26 26 26 25 25 25 25 24 24 24 23 23 22 22 22 22 21 21 21 21 21 20 20 19 19 19 20 20 20 20 19 19 19 19 19 18 18 18 18
25 25 25 26 25 25 26 26 26 26 27 28 28 28 27 26 26 26 27 28 27 27 27 26 26 26 25 25 25 25 24 24 23 23 23 22 22 22 22 22 21 21 21 20 20 20 20 19 19 20 20 20 20 19 19 19 18 19 19 19 18 18 17
23 24 24 24 24 24 24 24 24 25 25 26 26 27 27 26 26 25 26 26 27 27 27 27 26 26 26 25 25 25 25 24 24 23 23 23 22 22 22 22 22 21 20 20 20 20 20 20 20 20 20 21 20 20 19 19 19 19 20 19 18 18 17
22 23 23 23 24 23 23 23 23 23 23 24 24 25 25 25 25 25 25 25 25 26 26 26 26 26 26 26 25 25 25 25 24 24 24 23 23 23 22 22 21 21 21 21 21 21 20 20 20 20 20 21 20 20 20 19 19 19 19 19 18 18 17
20 21 22 22 23 23 23 23 23 22 22 23 23 24 25 25 25 24 24 24 24 25 25 25 26 26 26 26 26 26 26 26 25 25 25 25 25 24 23 22 21 21 21 21 22 22 21 20 19 20 20 20 20 20 19 18 18 19 19 19 19 18 17
19 20 20 21 21 22 22 22 22 22 22 22 22 22 23 24 24 24 24 24 23 24 24 24 25 25 26 26 26 26 26 26 26 25 25 25 25 24 24 23 22 22 22 21 22 22 21 20 19 19 19 19 19 20 19 19 19 19 20 20 19 18 17
19 19 20 20 20 20 20 21 21 21 21 21 21 21 21 22 23 23 24 24 23 23 23 23 24 24 25 25 26 26 26 26 25 25 24 23 23 23 23 22 22 21 21 20 21 21 21 20 20 20 19 19 19 19 20 20 20 19 19 19 18 17 17
18 18 19 19 20 20 20 19 19 19 19 19 20 20 20 20 20 21 21 22 22 22 21 21 22 22 23 24 24 25 25 25 25 25 25 24 23 22 22 21 21 20 20 19 20 20 20 20 21 21 20 19 19 19 19 19 19 18 18 18 17 16 16
17 18 18 18 18 18 18 18 17 18 18 18 18 18 18 19 18 19 19 19 19 19 19 19 20 20 21 22 22 23 23 24 24 25 25 24 22 21 21 21 20 19 18 18 18 19 19 20 20 20 19 19 19 19 18 17 17 17 17 17 17 16 16
Height
1434 1437 1439 1442 1445 1447 1449 1451 1453 1456 1458 1461 1463 1466 1469 1472 1475 1478 1480 1482 1485 1488 1491 1493 1496 1498 1499 1501 1504 1507 1510 1513 1516 1518 1521 1523 1525 1528 1531 1533 1535 1537 1538 1539 1540 1541 1543 1545 1546 1548 1550 1551 1553 1555 1556 1558 1559 1560 1560 1561 1562 1563 1564
1432 1433 1435 1438 1440 1442 1444 1446 1449 1451 1454 1456 1459 1462 1465 1468 1470 1472 1475 1478 1481 1484 1487 1490 1492 1494 1495 1498 1501 1504 1507 1510 1513 1515 1517 1520 1522 1525 1528 1530 1533 1534 1536 1537 1539 1540 1542 1543 1545 1546 1548 1550 1552 1554 1555 1556 1557 1558 1559 1561 1561 1562 1563
1426 1428 1430 1432 1434 1435 1438 1442 1445 1447 1450 1452 1455 1458 1460 1463 1465 1467 1470 1474 1477 1481 1484 1486 1488 1490 1492 1495 1497 1500 1503 1506 1509 1512 1514 1516 1518 1521 1524 1527 1530 1532 1534 1535 1537 1539 1540 1542 1543 1545 1547 1549 1551 1552 1554 1555 1556 1557 1558 1560 1560 1561 1562
1421 1422 1424 1426 1428 1431 1435 1438 1441 1443 1446 1448 1450 1453 1455 1457 1460 1464 1467 1470 1473 1476 1479 1481 1484 1486 1489 1491 1494 1496 1499 1503 1505 1508 1510 1513 1516 1519 1521 1524 1527 1529 1531 1533 1535 1537 1539 1540 1541 1543 1545 1547 1549 1550 1552 1553 1554 1556 1557 1558 1559 1559 1560
1416 1418 1421 1423 1425 1429 1432 1434 1436 1438 1441 1443 1446 1449 1451 1454 1458 1461 1464 1467 1470 1472 1474 1477 1480 1483 1485 1487 1490 1493 1496 1499 1502 1505 1508 1510 1513 1515 1517 1520 1523 1526 1528 1531 1533 1535 1537 1538 1540 1541 1543 1545 1547 1549 1550 1551 1553 1554 1555 1556 1556 1557 1558
1411 1413 1416 1418 1420 1423 1425 1428 1430 1432 1435 1438 1442 1445 1447 1452 1456 1458 1461 1464 1467 1470 1473 1476 1478 1479 1481 1483 1486 1489 1493 1496 1499 1502 1504 1507 1509 1512 1513 1516 1520 1523 1525 1528 1531 1533 1535 1536 1538 1540 1541 1543 1545 1546 1548 1549 1550 1552 1553 1553 1554 1554 1555
1406 1407 1409 1411 1414 1417 1420 1422 1425 1427 1430 1433 1437 1441 1445 1449 1452 1454 1458 1460 1463 1466 1469 1472 1474 1475 1477 1480 1483 1486 1489 1492 1495 1498 1501 1504 1506 1508 1510 1513 1516 1519 1523 1525 1528 1530 1532 1534 1536 1538 1539 1541 1542 1544 1545 1547 1548 1549 1550 1550 1551 1552 1553
1400 1401 1403 1405 1408 1411 1414 1417 1419 1422 1426 1430 1434 1438 1442 1445 1447 1450 1454 1456 1459 1463 1465 1467 1469 1471 1473 1477 1480 1483 1486 1489 1492 1495 1498 1500 1502 1504 1506 1509 1512 1516 1519 1522 1525 1528 1530 1532 1533 1535 1537 1538 1540 1541 1543 1544 1545 1546 1547 1547 1548 1549 1550
1395 1397 1398 1400 1403 1406 1409 1411 1414 1418 1422 1426 1430 1433 1437 1440 1443 1446 1448 1451 1455 1458 1460 1462 1464 1467 1470 1473 1476 1479 1483 1486 1489 1492 1494 1496 1498 1500 1502 1505 1509 1513 1516 1519 1522 1525 1527 1529 1531 1532 1534 1536 1537 1538 1540 1541 1542 1543 1543 1544 1545 1546 1547
1393 1395 1396 1397 1399 1402 1405 1408 1412 1415 1419 1422 1425 1428 1432 1435 1438 1441 1444 1448 1451 1452 1454 1457 1461 1464 1467 1470 1473 1477 1480 1483 1485 1488 1490 1491 1494 1496 1499 1502 1505 1509 1512 1516 1519 1521 1524 1526 1528 1529 1531 1533 1534 1535 1536 1537 1538 1539 1540 1541 1542 1543 1545
1391 1393 1394 1396 1397 1399 1402 1405 1409 1412 1414 1417 1420 1423 1426 1429 1433 1436 1440 1443 1445 1447 1451 1454 1458 1460 1463 1466 1470 1473 1476 1479 1482 1484 1485 1487 1490 1493 1495 1498 1501 1505 1509 1512 1515 1517 1520 1522 1524 1526 1527 1529 1530 1531 1532 1533 1534 1535 1536 1537 1539 1541 1543
1386 1388 1391 1392 1394 1395 1397 1400 1403 1406 1409 1412 1415 1419 1422 1425 1428 1431 1434 1437 1440 1443 1447 1450 1454 1456 1459 1463 1466 1469 1472 1475 1477 1479 1481 1484 1487 1490 1493 1495 1498 1501 1505 1508 1511 1514 1516 1518 1520 1522 1523 1524 1526 1527 1528 1530 1531 1531 1533 1535 1537 1539 1540
1381 1383 1385 1387 1389 1392 1394 1396 1399 1401 1404 1407 1410 1414 1417 1420 1424 1427 1430 1433 1436 1439 1443 1446 1449 1452 1455 1458 1461 1464 1467 1470 1472 1475 1478 1481 1484 1488 1490 1492 1495 1497 1501 1504 1507 1510 1512 1514 1516 1517 1519 1520 1522 1523 1525 1526 1527 1528 1530 1532 1534 1536 1537
1378 1379 1380 1383 1386 1389 1391 1393 1394 1396 1400 1403 1406 1410 1413 1416 1420 1423 1426 1429 1432 1436 1439 1442 1444 1447 1450 1453 1455 1458 1461 1465 1469 1472 1475 1479 1482 1486 1488 1490 1492 1494 1497 1500 1502 1505 1507 1509 1511 1513 1515 1516 1518 1519 1521 1522 1524 1525 1526 1528 1530 1532 1534
1374 1375 1376 1378 1380 1384 1387 1388 1389 1391 1394 1397 1401 1406 1409 1412 1416 1419 1423 1426 1429 1432 1434 1436 1439 1442 1446 1448 1450 1452 1455 1460 1465 1468 1472 1476 1479 1482 1484 1486 1489 1491 1493 1496 1498 1500 1502 1505 1507 1508 1510 1512 1514 1516 1517 1518 1519 1520 1522 1524 1526 1529 1531
1370 1370 1371 1372 1374 1377 1381 1383 1385 1387 1390 1393 1397 1401 1404 1407 1411 1414 1417 1421 1424 1427 1429 1433 1436 1438 1441 1443 1444 1447 1452 1457 1461 1464 1468 1471 1474 1478 1480 1483 1485 1488 1489 1491 1493 1495 1497 1500 1502 1503 1505 1507 1509 1511 1513 1514 1515 1516 1518 1520 1523 1526 1528
1366 1366 1366 1367 1370 1373 1375 1378 1382 1385 1387 1390 1393 1396 1399 1402 1405 1408 1412 1416 1419 1422 1425 1429 1432 1434 1436 1437 1439 1444 1448 1452 1456 1460 1463 1466 1470 1474 1477 1480 1482 1484 1485 1486 1488 1490 1492 1495 1496 1498 1501 1503 1504 1507 1508 1509 1511 1512 1514 1516 1519 1522 1525
1364 1363 1363 1364 1366 1369 1371 1374 1377 1380 1383 1386 1388 1392 1394 1398 1401 1405 1408 1412 1414 1417 1421 1425 1427 1430 1431 1433 1437 1441 1444 1448 1452 1456 1459 1462 1465 1469 1472 1476 1478 1479 1480 1481 1483 1485 1487 1489 1491 1493 1496 1498 1500 1502 1503 1505 1506 1508 1510 1512 1514 1517 1522
1363 1362 1362 1362 1363 1365 1367 1369 1372 1374 1377 1380 1383 1386 1389 1393 1397 1400 1403 1406 1409 1414 1418 1421 1423 1426 1428 1430 1435 1438 1440 1444 1448 1452 1455 1458 1461 1465 1468 1471 1473 1473 1474 1476 1478 1480 1482 1483 1485 1488 1490 1492 1494 1496 1498 1500 1502 1504 1506 1507 1510 1514 1518
1362 1362 1362 1362 1363 1363 1364 1366 1368 1370 1372 1375 1378 1381 1385 1390 1393 1396 1399 1403 1407 1411 1415 1417 1420 1422 1424 1427 1431 1433 1436 1440 1443 1447 1450 1454 1457 1460 1463 1464 1466 1467 1469 1471 1474 1475 1476 1477 1480 1482 1484 1487 1489 1491 1493 1495 1497 1499 1501 1503 1506 1511 1512
1362 1362 1362 1362 1362 1363 1364 1365 1366 1368 1370 1373 1375 1379 1383 1387 1391 1395 1398 1402 1405 1408 1411 1413 1415 1417 1419 1422 1426 1429 1432 1436 1439 1443 1446 1449 1453 1455 1456 1458 1460 1462 1464 1466 1468 1470 1471 1472 1474 1476 1479 1481 1484 1486 1488 1490 1492 1494 1497 1500 1503 1507 1508
1361 1362 1362 1361 1361 1362 1363 1364 1365 1366 1367 1370 1373 1376 1380 1383 1388 1392 1395 1399 1402 1404 1406 1409 1411 1413 1415 1418 1421 1425 1428 1430 1434 1438 1441 1445 1447 1449 1450 1452 1454 1456 1459 1461 1463 1466 1467 1468 1468 1470 1473 1476 1479 1481 1483 1485 1487 1489 1493 1496 1499 1503 1505
1360 1361 1361 1361 1362 1362 1363 1364 1365 1367 1368 1370 1372 1374 1376 1381 1385 1389 1392 1396 1398 1401 1403 1406 1407 1409 1412 1414 1417 1420 1423 1426 1429 1433 1436 1439 1441 1442 1445 1447 1449 1451 1454 1456 1458 1460 1462 1463 1463 1466 1469 1472 1474 1476 1478 1481 1483 1485 1489 1492 1494 1498 1501
1360 1360 1360 1360 1361 1361 1362 1363 1365 1367 1369 1371 1372 1373 1375 1378 1383 1386 1390 1392 1394 1397 1400 1401 1403 1405 1407 1410 1412 1415 1418 1420 1424 1427 1431 1433 1434 1436 1439 1442 1444 1447 1449 1451 1453 1455 1457 1458 1460 1462 1465 1467 1469 1472 1474 1476 1478 1481 1485 1488 1489 1491 1495
1359 1359 1359 1360 1360 1361 1361 1363 1364 1366 1368 1369 1371 1373 1376 1378 1381 1383 1386 1387 1390 1393 1395 1396 1398 1400 1403 1405 1408 1411 1413 1415 1418 1422 1425 1426 1428 1431 1434 1436 1439 1442 1445 1447 1449 1452 1454 1455 1457 1459 1460 1463 1465 1468 1470 1472 1474 1478 1481 1484 1485 1486 1489
1359 1359 1359 1359 1360 1360 1361 1362 1363 1365 1366 1368 1370 1373 1376 1378 1380 1381 1382 1384 1387 1389 1390 1392 1394 1397 1400 1402 1405 1407 1409 1412 1414 1415 1418 1420 1422 1425 1428 1431 1435 1438 1441 1443 1446 1449 1451 1452 1454 1456 1458 1460 1463 1465 1467 1468 1471 1475 1478 1481 1483 1483 1485
1359 1359 1358 1359 1360 1360 1361 1362 1363 1364 1366 1368 1370 1373 1375 1377 1379 1379 1380 1382 1384 1384 1385 1387 1390 1394 1397 1399 1401 1404 1406 1407 1408 1409 1411 1414 1417 1420 1423 1426 1429 1432 1435 1439 1443 1445 1447 1449 1452 1455 1457 1460 1461 1462 1463 1465 1468 1473 1477 1479 1481 1481 1483
1360 1359 1359 1360 1361 1361 1361 1362 1362 1363 1365 1367 1369 1372 1374 1376 1377 1378 1380 1380 1380 1380 1382 1385 1388 1391 1393 1395 1398 1401 1402 1404 1405 1406 1409 1412 1415 1417 1419 1421 1424 1428 1431 1435 1439 1441 1444 1447 1450 1453 1455 1457 1458 1459 1460 1463 1467 1472 1476 1477 1479 1481 1483
1361 1361 1361 1362 1362 1362 1362 1362 1363 1363 1364 1366 1368 1370 1372 1374 1375 1377 1379 1378 1378 1379 1382 1384 1386 1389 1391 1393 1396 1398 1399 1401 1402 1404 1407 1409 1412 1415 1417 1419 1423 1426 1429 1432 1435 1438 1441 1443 1445 1447 1449 1451 1454 1456 1458 1461 1465 1471 1475 1476 1479 1482 1483
1363 1363 1363 1364 1364 1364 1365 1365 1365 1365 1365 1365 1367 1368 1370 1371 1373 1374 1375 1376 1377 1379 1381 1382 1384 1386 1388 1390 1392 1395 1397 1399 1400 1402 1404 1406 1409 1412 1415 1417 1420 1422 1425 1428 1431 1433 1435 1437 1439 1442 1444 1447 1451 1453 1455 1457 1462 1468 1472 1475 1480 1483 1485
1365 1365 1364 1365 1365 1365 1366 1366 1367 1367 1367 1367 1367 1368 1368 1369 1370 1371 1372 1373 1375 1376 1377 1379 1381 1382 1384 1386 1388 1391 1393 1396 1399 1401 1404 1406 1409 1412 1414 1415 1416 1417 1420 1423 1426 1427 1428 1430 1432 1435 1438 1441 1444 1447 1449 1453 1459 1463 1466 1470 1478 1484 1486
1366 1366 1365 1365 1365 1365 1366 1367 1367 1368 1368 1368 1368 1368 1368 1369 1369 1369 1370 1371 1372 1373 1374 1375 1377 1378 1379 1381 1382 1384 1387 1389 1392 1396 1399 1403 1406 1409 1411 1413 1413 1414 1415 1418 1420 1421 1421 1423 1424 1427 1431 1434 1436 1438 1443 1449 1454 1457 1459 1463 1472 1480 1485
1366 1366 1367 1367 1366 1366 1366 1366 1367 1368 1368 1368 1369 1369 1369 1369 1369 1369 1370 1370 1371 1371 1371 1371 1372 1373 1374 1375 1376 1378 1380 1382 1385 1388 1391 1394 1398 1402 1405 1407 1409 1410 1410 1411 1412 1412 1413 1415 1416 1419 1424 1427 1428 1432 1437 1443 1447 1450 1454 1458 1466 1475 1481
1366 1367 1367 1367 1367 1367 1367 1366 1367 1367 1367 1368 1369 1369 1370 1370 1369 1369 1370 1370 1371 1371 1370 1370 1369 1368 1368 1369 1370 1372 1373 1376 1378 1379 1380 1382 1385 1390 1395 1398 1402 1402 1401 1400 1401 1401 1402 1403 1407 1413 1417 1420 1422 1426 1432 1437 1441 1444 1446 1452 1463 1472 1477
1366 1366 1367 1367 1367 1367 1367 1367 1367 1366 1367 1367 1368 1368 1369 1369 1369 1369 1368 1369 1369 1369 1369 1369 1368 1367 1366 1365 1365 1365 1366 1369 1371 1372 1372 1371 1372 1376 1382 1386 1390 1392 1392 1392 1394 1395 1395 1397 1404 1412 1417 1420 1421 1424 1428 1432 1436 1437 1439 1447 1459 1470 1473
1366 1366 1366 1366 1366 1366 1366 1366 1366 1366 1367 1367 1366 1367 1367 1367 1367 1367 1367 1367 1367 1366 1367 1367 1367 1367 1366 1364 1363 1362 1361 1362 1364 1366 1367 1366 1366 1368 1372 1376 1380 1382 1385 1386 1387 1389 1390 1394 1400 1407 1413 1419 1423 1425 1427 1430 1432 1432 1434 1442 1455 1466 1470
1367 1367 1367 1367 1367 1367 1367 1367 1366 1366 1366 1366 1366 1366 1366 1366 1366 1365 1365 1365 1364 1364 1364 1364 1364 1364 1364 1363 1361 1360 1358 1357 1357 1358 1360 1361 1362 1363 1365 1369 1373 1376 1379 1380 1381 1383 1386 1390 1395 1399 1403 1410 1418 1425 1429 1433 1432 1430 1431 1439 1451 1461 1466
1369 1369 1369 1369 1369 1368 1368 1368 1367 1367 1366 1366 1366 1366 1366 1366 1366 1365 1364 1364 1363 1363 1363 1363 1362 1362 1361 1360 1358 1356 1354 1352 1350 1350 1351 1354 1356 1357 1360 1364 1369 1372 1373 1376 1378 1381 1386 1390 1394 1397 1399 1403 1410 1419 1427 1432 1432 1430 1432 1438 1447 1457 1462
Wind_Speed
43 44 47 49 50 51 53 55 57 57 58 59 60 60 60 59 58 57 57 57 57 57 56 55 54 53 52 51 50 49 49 48 46 45 44 43 41 38 36 35 35 34 32 30 29 28 27 26 25 25 25 24 23 23 23 21 20 19 18 17 16 15 13
39 43 45 47 49 52 54 56 57 57 58 59 60 60 60 60 60 59 59 58 58 57 56 56 56 55 54 52 51 50 49 48 46 45 45 44 43 40 37 36 35 34 32 30 29 28 27 26 25 25 25 24 23 23 23 22 21 21 20 18 16 15 14
40 43 46 48 51 54 55 55 56 57 58 59 59 59 60 61 61 61 60 58 58 57 57 57 57 56 55 53 52 51 49 48 46 45 45 44 43 43 40 37 36 35 33 31 30 29 28 26 25 26 25 24 23 23 24 23 22 22 21 18 16 15 15
41 44 48 50 52 53 54 55 56 57 58 59 60 60 61 62 62 61 60 59 58 57 57 57 57 56 55 54 53 52 50 48 46 45 44 43 42 42 42 40 38 36 35 33 32 30 28 26 26 27 26 24 23 23 24 24 23 22 22 19 17 17 16
39 44 46 47 49 50 52 55 57 58 59 59 59 60 61 61 60 60 59 59 58 57 56 56 55 55 55 55 54 53 51 48 46 45 44 43 42 42 43 43 41 38 37 35 33 32 30 27 27 28 28 26 24 24 25 25 24 23 22 21 18 18 18
37 42 45 46 48 50 53 56 58 59 60 60 60 60 60 59 58 58 59 59 58 57 56 55 55 55 55 54 54 53 51 48 46 44 43 43 42 42 42 42 41 41 39 36 35 33 31 29 28 28 28 27 26 25 26 26 25 24 23 22 21 20 19
38 43 46 48 49 51 54 56 58 59 59 60 60 59 58 56 56 58 58 58 58 58 57 56 56 56 55 54 53 52 51 49 46 44 44 43 42 42 42 41 41 41 40 38 37 35 33 31 29 29 28 27 27 27 27 27 26 25 24 24 23 22 21
41 43 46 48 51 53 55 57 58 58 58 58 57 56 55 55 56 57 57 57 58 57 57 57 56 56 56 54 53 52 50 48 46 44 44 44 42 41 41 42 41 40 40 40 39 37 35 33 31 30 29 28 28 29 29 28 27 26 26 26 25 24 22
43 44 46 49 51 53 55 56 58 57 56 56 55 55 55 55 55 56 57 57 57 57 58 57 56 56 55 54 53 51 49 47 46 44 44 44 42 41 41 42 41 40 39 39 39 39 37 35 32 31 30 29 29 30 30 30 29 28 27 27 26 25 24
39 41 45 47 48 52 53 53 53 53 53 54 55 56 55 55 56 56 56 56 57 58 58 57 56 56 55 54 53 51 49 47 46 45 45 44 42 40 41 41 41 40 39 38 38 39 39 37 35 33 32 31 30 31 32 32 31 29 29 29 28 26 25
36 38 42 43 45 48 50 49 48 49 51 53 55 55 55 55 56 56 56 57 58 58 58 57 56 56 55 55 53 52 50 48 47 46 45 44 42 40 40 41 41 40 39 38 38 39 39 39 37 35 34 33 33 32 33 34 33 32 31 30 29 27 26
36 38 40 43 45 48 49 48 48 49 51 53 54 55 55 55 55 56 57 57 58 58 57 57 56 56 55 55 54 53 51 49 48 47 45 44 42 40 40 41 42 40 38 38 38 38 40 40 39 37 36 35 35 34 34 35 35 35 33 32 30 29 28
37 39 42 44 46 48 47 46 47 48 50 53 54 55 56 55 55 56 56 57 57 57 56 56 56 56 55 55 54 54 52 50 48 47 45 44 42 40 40 41 41 41 39 38 37 38 39 40 40 39 37 37 37 37 37 36 37 37 35 34 32 31 30
33 35 39 41 42 44 44 45 47 48 50 52 53 54 55 55 55 56 56 56 56 56 56 56 56 56 55 55 55 55 53 51 49 47 46 44 42 41 41 41 41 40 40 39 38 38 38 39 39 39 39 39 39 39 39 38 38 38 38 36 35 33 32
31 33 37 39 41 43 45 47 48 49 50 52 52 53 54 54 54 54 54 55 55 55 56 56 55 55 55 55 55 55 54 51 49 48 47 45 44 42 42 41 41 40 40 40 39 39 38 38 39 40 40 40 40 40 40 40 40 40 39 38 36 34 33
31 34 38 40 42 44 47 48 48 49 51 51 51 53 54 54 54 55 55 55 55 55 55 55 54 55 55 55 55 54 53 52 50 49 48 48 46 44 43 43 42 41 40 41 41 40 39 38 40 41 42 41 41 42 42 42 41 41 40 40 38 35 34
29 33 37 39 41 43 46 48 48 48 48 50 52 53 55 55 56 56 55 55 55 55 55 54 54 54 55 54 54 53 53 52 51 50 49 49 48 46 45 44 43 42 41 41 41 41 40 40 40 41 42 42 43 43 43 44 43 42 42 41 40 38 36
28 32 35 36 38 42 45 47 48 48 49 51 52 53 55 56 55 55 55 55 56 55 54 53 53 54 54 54 53 53 52 51 51 50 50 49 48 48 47 46 45 44 44 43 42 41 41 42 41 41 41 42 44 44 44 44 44 43 43 42 41 40 38
26 30 32 34 36 39 44 46 49 51 52 53 54 54 55 56 55 55 55 56 56 54 52 52 53 54 54 53 52 52 52 51 50 50 50 49 49 48 47 47 46 46 46 46 44 42 42 42 42 41 41 42 43 44 44 44 44 44 43 43 43 42 41
23 25 27 31 34 37 42 46 48 50 52 53 54 55 55 55 55 56 55 55 54 52 52 52 52 53 53 52 52 52 51 51 50 49 49 49 49 48 48 48 48 48 47 47 46 45 43 43 43 42 42 42 42 43 44 44 44 44 43 43 43 42 45
17 19 21 25 29 33 38 42 44 47 49 51 52 52 52 52 53 53 53 52 51 51 52 52 52 53 53 52 52 51 51 50 50 49 49 49 49 49 49 49 49 49 49 49 48 47 44 43 43 43 42 42 41 42 43 43 43 43 42 42 43 42 44
9 13 16 19 24 27 32 36 38 40 44 47 49 50 50 50 51 52 52 51 50 51 52 52 53 53 52 52 52 51 51 50 50 49 49 49 50 50 50 50 50 50 50 50 50 48 45 44 44 43 42 41 41 42 42 41 41 42 41 41 42 42 42
2 4 9 15 19 22 25 28 31 33 38 43 45 47 47 47 48 50 50 50 50 51 51 52 53 53 53 53 52 51 51 51 50 50 50 50 51 51 51 51 51 51 51 51 51 49 47 46 46 44 42 40 41 41 40 40 40 40 39 40 42 41 41
10 5 1 6 12 17 20 23 25 28 32 37 41 43 43 43 45 47 48 49 50 51 51 52 53 53 53 53 52 51 51 51 51 50 50 51 52 52 52 51 51 51 51 52 51 49 48 47 46 44 42 41 41 39 37 38 37 36 36 38 41 42 40
11 10 7 3 2 8 14 19 22 24 27 31 35 38 39 40 42 44 47 49 49 50 51 52 53 53 52 51 50 50 51 52 52 51 51 51 52 52 52 51 51 51 51 51 51 49 48 48 46 44 43 41 40 37 36 37 36 34 34 36 39 41 40
11 10 10 8 6 3 5 11 18 23 26 28 31 34 37 39 40 43 45 46 48 49 50 50 50 49 48 48 48 50 51 52 52 52 51 51 52 52 52 52 51 51 51 50 49 48 48 47 46 44 43 42 39 37 37 37 35 33 33 34 37 39 39
10 10 10 10 10 9 7 4 8 15 21 24 26 30 35 38 40 43 44 45 47 49 48 47 46 44 45 46 48 50 51 52 52 53 52 52 52 52 52 52 52 52 51 49 48 48 48 47 45 44 43 41 39 38 38 37 34 32 31 32 33 36 36
8 8 8 9 9 9 9 8 6 6 11 17 22 27 32 34 36 39 42 44 47 48 47 45 44 44 44 47 49 50 51 52 52 53 52 52 53 53 53 53 52 52 50 48 47 47 47 46 44 43 42 40 39 39 37 37 34 31 30 31 31 31 29
8 7 7 7 8 8 9 9 9 9 8 9 13 20 26 29 30 32 36 41 45 46 45 45 45 45 46 47 49 50 51 52 52 52 52 52 52 53 53 52 51 50 49 47 47 46 46 45 44 43 42 41 39 37 36 37 34 30 29 30 27 23 21
7 6 6 7 7 7 7 7 8 9 9 10 9 10 15 21 25 27 31 36 39 41 43 44 45 45 45 45 46 48 49 49 49 50 51 51 50 51 51 50 50 50 49 48 47 47 47 46 45 44 43 40 37 36 37 37 32 26 24 23 18 17 18
6 5 6 7 8 8 7 5 6 6 7 8 10 10 10 13 18 23 28 32 35 38 41 43 44 44 44 44 45 45 45 45 45 45 45 45 46 48 50 51 51 50 50 49 48 49 49 48 47 46 43 38 36 37 38 35 29 23 21 18 15 16 19
5 5 5 7 9 10 9 8 6 5 5 6 7 9 10 11 13 17 21 25 29 33 37 40 42 43 44 45 45 45 45 45 44 43 42 42 44 46 49 51 52 52 51 50 50 51 52 51 50 48 43 38 37 37 36 32 26 22 21 20 19 19 20
6 5 5 5 7 9 10 10 9 7 5 4 5 7 9 11 13 15 17 20 24 28 31 35 39 41 42 44 44 44 45 45 45 43 42 41 43 46 49 52 53 53 53 53 54 55 54 54 54 50 45 41 39 37 33 30 26 23 22 21 19 20 23
8 7 6 6 6 7 8 9 10 9 7 6 5 6 8 10 12 14 16 18 22 25 28 31 35 37 40 42 43 43 45 45 45 45 45 44 45 47 49 52 54 56 58 59 59 59 59 59 55 50 46 44 41 36 32 30 28 26 23 19 19 23 26
8 7 7 7 6 6 6 7 8 9 10 9 8 7 8 9 12 13 14 16 20 23 26 29 32 34 36 38 40 42 44 46 47 48 47 46 46 47 51 53 56 59 62 62 62 62 61 58 52 46 42 41 38 33 31 30 29 26 20 16 19 24 25
8 7 8 8 8 9 8 8 7 7 7 8 9 9 9 10 12 14 15 17 19 22 25 28 31 34 36 38 40 42 44 46 48 49 47 45 45 48 52 55 57 60 61 61 61 62 61 56 48 42 39 36 32 28 25 23 24 23 19 17 20 21 21
9 8 8 8 8 9 10 10 10 9 7 7 8 10 10 11 12 13 15 16 18 20 22 24 28 32 36 38 41 43 46 47 48 47 46 45 45 48 54 57 59 60 60 60 60 60 59 53 44 37 33 30 27 24 21 17 17 20 20 19 18 19 21
10 9 8 7 7 8 9 10 11 11 10 10 10 11 12 12 11 12 13 15 16 17 18 20 23 27 32 36 38 40 43 46 47 48 48 48 48 50 54 57 59 59 56 54 53 53 52 46 38 31 28 26 24 23 22 19 18 19 19 19 19 19 20
Wind_Direction
207 208 209 210 210 210 211 212 212 212 212 213 214 215 215 216 216 217 218 219 219 220 221 222 225 228 229 231 232 232 232 234 235 236 236 237 236 235 234 233 231 228 226 226 227 229 231 232 233 235 236 236 235 235 232 229 229 231 234 233 228 226 229
207 210 210 210 211 212 213 213 213 213 213 214 215 215 215 215 216 217 218 219 220 221 221 222 224 227 229 231 232 232 233 234 235 236 237 237 236 235 233 233 232 230 228 227 229 232 234 235 235 235 235 233 233 232 230 229 229 230 233 232 228 228 229
208 210 210 211 212 213 214 214 214 214 214 215 215 215 215 216 217 217 218 219 220 221 222 222 224 226 229 231 231 232 233 233 234 235 236 237 236 235 233 232 232 232 231 229 230 233 235 237 237 235 233 232 231 231 229 228 228 229 231 232 230 231 232
209 211 212 213 213 214 214 214 215 215 216 216 217 216 217 218 218 218 218 219 220 220 221 223 225 226 228 230 230 231 232 233 234 235 236 237 237 236 234 232 231 232 233 231 232 234 235 237 238 236 234 232 231 230 229 229 228 229 231 232 231 233 234
210 212 213 213 214 214 215 215 216 216 217 218 218 218 219 219 218 217 218 220 221 222 224 225 225 227 229 230 230 231 232 233 234 235 236 236 237 236 235 234 232 232 233 233 233 234 235 236 237 236 235 232 231 230 230 230 229 229 231 232 231 232 233
209 211 213 213 213 214 215 216 217 218 218 218 218 219 220 218 217 217 218 218 220 223 224 224 226 227 228 229 230 231 231 232 234 235 235 236 236 236 236 235 234 233 234 234 234 234 235 236 236 236 235 233 231 230 230 231 231 230 231 232 231 232 234
210 211 212 213 213 214 216 217 218 220 220 219 219 219 219 217 217 218 218 218 219 221 222 224 226 227 228 229 230 230 231 232 233 234 235 235 236 237 237 237 235 233 234 234 235 235 235 236 237 235 235 234 233 232 232 234 233 230 229 230 231 232 235
215 214 212 212 213 215 216 217 218 219 220 219 218 218 217 217 217 217 217 218 219 219 221 224 227 228 228 229 229 230 231 232 233 233 234 235 235 236 236 236 235 234 233 233 235 235 236 238 238 236 235 234 234 234 234 235 235 231 229 229 229 231 233
218 217 216 215 214 215 217 217 218 218 218 217 216 217 217 217 217 217 217 218 218 218 222 225 227 228 228 228 229 230 230 232 232 233 233 234 235 234 233 234 235 234 233 233 234 235 236 239 240 238 236 236 236 236 235 236 235 232 230 230 229 230 233
220 218 218 217 215 216 217 218 217 216 216 216 216 216 216 216 217 217 217 217 217 219 223 225 227 227 227 228 228 229 230 231 232 232 233 233 233 232 231 232 233 233 232 232 233 234 236 238 240 240 239 238 238 237 236 236 235 233 232 231 230 231 233
223 220 219 218 216 216 217 217 216 216 216 216 216 216 216 216 216 216 216 217 218 220 223 224 225 224 225 227 227 228 230 231 231 232 232 233 232 231 230 230 232 232 232 232 233 235 236 237 240 241 240 239 239 239 238 236 236 235 234 232 231 231 233
226 222 220 219 217 217 217 217 216 216 216 216 216 216 216 216 216 215 216 217 219 221 222 222 223 222 224 225 225 227 229 231 231 232 232 232 232 231 230 230 231 232 232 232 233 234 236 237 239 240 241 241 241 241 240 239 238 237 236 234 232 231 233
228 224 223 221 219 219 218 217 217 216 216 216 216 216 216 216 216 215 216 217 219 220 221 221 222 221 222 224 225 226 229 230 231 232 232 232 232 232 232 231 230 231 231 232 232 234 236 237 238 240 242 242 243 243 243 241 240 239 238 235 234 233 234
230 226 225 224 221 220 219 218 218 217 217 217 216 216 216 216 216 216 216 217 218 218 220 221 220 221 222 223 224 225 228 230 231 232 232 233 233 233 233 232 231 230 231 232 232 233 235 237 239 240 241 243 244 245 245 244 243 242 239 237 235 235 235
232 229 227 224 221 219 219 220 219 217 217 217 215 214 214 215 215 215 216 217 218 218 221 221 220 221 222 223 225 226 228 229 230 231 232 232 232 233 233 232 231 230 231 232 233 234 235 238 239 241 242 243 245 246 246 246 246 245 242 239 237 236 236
231 232 229 225 220 217 218 220 220 218 217 216 214 214 214 214 215 215 215 217 217 218 220 219 219 220 221 224 228 228 227 227 228 229 230 231 231 232 232 232 232 231 231 232 233 234 235 237 239 241 242 244 245 246 246 247 248 248 246 243 241 239 238
232 234 232 226 220 216 216 219 220 219 217 216 216 215 214 215 216 216 215 216 217 219 219 218 219 220 223 227 229 227 225 226 227 228 229 231 231 232 232 232 231 231 231 232 232 233 234 236 238 240 242 244 245 246 247 248 250 250 249 246 243 242 239
236 236 235 230 222 216 215 217 218 218 217 218 218 217 215 215 216 216 215 215 218 219 218 217 219 222 225 228 227 226 225 226 225 227 229 231 231 231 231 231 232 232 232 232 232 232 233 235 237 239 242 244 245 246 248 250 251 252 251 248 246 244 240
240 240 238 234 227 220 217 218 219 220 220 220 220 219 218 216 216 217 219 219 220 218 215 216 220 223 227 228 226 226 227 226 225 226 229 231 231 231 230 231 232 233 233 233 233 232 233 235 237 238 240 242 244 246 249 250 252 253 252 251 249 245 238
244 244 240 236 232 226 222 221 221 222 222 221 221 222 220 217 218 221 223 221 218 216 216 219 221 224 228 228 226 226 226 225 226 228 229 230 229 229 230 232 233 234 234 233 232 232 234 235 236 237 239 241 243 246 248 250 252 253 253 254 252 245 239
248 250 246 239 234 230 226 225 224 224 223 222 221 221 218 216 218 221 221 219 217 218 221 223 225 227 229 227 226 226 225 225 227 228 228 228 228 229 231 233 234 234 234 233 233 233 234 235 236 237 238 240 242 245 248 250 252 254 255 256 252 246 241
244 251 251 245 238 232 229 228 228 228 227 224 222 219 218 218 219 220 220 220 220 222 223 224 224 226 227 225 224 225 225 226 227 227 228 227 227 229 231 232 233 234 234 233 233 234 235 236 237 237 237 240 242 244 247 249 252 254 255 256 252 246 242
106 232 243 245 244 240 235 232 230 230 229 226 222 220 221 221 220 220 221 221 221 222 222 222 223 225 226 226 226 226 227 227 227 227 228 227 228 230 231 232 233 234 233 232 232 233 234 235 236 237 238 240 242 244 246 249 251 253 255 255 250 244 242
71 77 160 234 240 242 240 236 233 231 228 226 224 225 224 222 220 220 220 220 221 221 221 222 224 226 227 228 229 229 229 228 227 227 228 229 230 231 231 232 234 234 233 232 233 234 235 235 235 236 238 240 241 243 246 248 251 253 254 254 250 245 243
69 71 69 65 245 244 243 239 236 234 231 228 227 228 226 224 222 221 221 222 222 221 221 223 226 228 229 231 232 232 230 229 227 228 230 231 232 232 232 233 234 233 233 233 234 236 236 235 235 236 238 239 241 244 246 247 251 252 253 254 251 248 245
56 59 59 54 44 11 278 249 238 234 234 234 231 227 224 222 222 223 225 225 223 222 224 228 230 231 232 234 234 232 231 230 229 229 231 232 233 233 234 234 233 232 231 232 234 236 235 235 235 235 237 238 240 243 245 246 249 251 252 254 254 252 247
43 41 43 41 32 23 10 316 253 238 239 242 240 232 226 222 221 222 224 224 223 226 232 235 235 236 237 237 234 232 232 232 232 232 233 233 233 232 232 233 232 231 231 232 233 233 233 233 233 232 233 236 239 242 244 246 249 251 251 253 255 254 251
43 36 35 32 23 15 12 2 339 286 253 246 240 236 233 232 229 226 224 222 225 232 237 237 236 237 237 236 233 232 232 232 232 232 232 230 230 230 230 230 230 229 229 230 231 230 229 229 228 228 230 234 238 241 244 246 248 250 253 253 253 254 254
40 29 18 15 15 13 12 5 353 342 320 280 251 239 238 242 243 238 231 228 231 235 234 231 232 233 234 233 232 232 232 233 233 232 231 228 227 228 229 228 226 225 226 227 226 226 225 225 225 226 228 232 236 239 241 243 243 245 250 252 249 248 248
40 22 5 359 0 3 6 3 354 347 340 329 311 278 255 251 250 248 243 241 241 238 234 232 232 231 232 232 233 234 234 235 234 233 231 229 227 226 227 227 226 225 225 225 224 223 223 223 223 224 226 229 233 234 234 236 236 236 245 250 241 231 233
46 19 355 344 341 341 343 344 343 337 329 326 325 316 296 272 258 254 252 251 248 244 240 237 235 234 234 234 234 235 236 236 236 235 232 230 228 227 226 227 227 226 223 221 221 221 221 221 222 223 224 225 226 227 229 231 231 232 236 232 215 211 220
52 23 353 334 328 330 332 330 329 324 311 300 297 296 294 285 272 265 262 260 256 252 247 243 239 238 237 236 236 236 236 236 236 235 234 234 233 232 231 230 228 225 222 219 219 220 221 221 221 221 220 219 219 222 227 229 229 229 225 213 200 202 210
52 36 11 346 331 327 325 325 329 331 319 289 269 265 266 267 267 267 265 262 260 257 254 249 244 240 237 236 236 236 236 236 235 234 234 235 236 236 234 232 229 225 222 220 219 220 220 221 221 218 214 213 216 219 221 224 222 214 205 202 201 201 204
49 34 19 1 341 325 316 314 317 318 315 301 275 258 250 251 254 257 257 255 254 253 252 251 250 246 243 241 239 237 237 236 235 233 233 233 235 235 233 230 228 227 227 226 224 222 221 218 215 212 210 211 213 212 211 213 209 199 194 200 204 201 201
45 30 16 3 352 340 323 308 302 303 305 305 298 283 264 251 249 249 250 250 248 245 243 245 248 247 244 242 239 235 232 230 228 227 224 223 226 229 231 231 231 230 230 229 227 225 221 213 206 205 210 216 216 210 207 206 200 193 193 200 203 205 210
34 23 11 2 356 352 344 330 315 306 299 295 294 289 279 267 258 253 252 250 248 244 240 238 240 242 241 237 232 228 224 222 222 223 223 221 221 222 224 225 226 226 225 223 223 222 219 214 212 213 216 220 221 217 214 208 195 185 183 185 193 206 219
36 26 12 0 351 347 348 344 338 334 327 310 299 291 284 278 271 266 263 262 260 257 252 246 243 244 244 240 234 230 227 226 226 228 229 229 226 223 221 220 218 218 219 218 218 218 214 214 217 216 212 210 210 207 207 201 181 170 168 172 183 201 214
49 40 27 11 355 345 346 346 341 339 341 339 330 319 308 300 294 291 289 284 279 273 267 260 254 250 249 245 240 235 232 230 229 229 229 228 222 217 217 217 213 211 210 208 206 206 207 209 211 205 195 188 182 180 182 178 164 157 160 168 180 192 201